• în Republica Moldova
  • Lista ţărilor
  • Pe 7 zile
  • Temperatura apei
  • Hartă satelitară
  • Meteo pe hartă
  • Widget-uri
  • user-avatar
    Intrare

    Meteo pe oră la San Fernando de Apure

    Astăzi, 24 Iunie, Luni

    Timp Temperatura Precipitaţii Vânt Presiune Umiditate
    00:00 +23°C° 0 mm 0 m/s 756 mmHg 94%
    01:00 +25°C° 0 mm 1 m/s 755 mmHg 95%
    02:00 +25°C° 0 mm 1 m/s 755 mmHg 96%
    03:00 +25°C° 1.4 mm 1 m/s 755 mmHg 97%
    04:00 +25°C° 1.4 mm 2 m/s 755 mmHg 97%
    05:00 +25°C° 1.4 mm 2 m/s 755 mmHg 98%
    06:00 +25°C° 5 mm 2 m/s 755 mmHg 98%
    07:00 +25°C° 5 mm 1 m/s 755 mmHg 98%
    08:00 +26°C° 0 mm 1 m/s 756 mmHg 99%
    09:00 +27°C° 1.2 mm 1 m/s 756 mmHg 96%
    10:00 +28°C° 1.2 mm 1 m/s 756 mmHg 93%
    11:00 +29°C° 1.2 mm 1 m/s 756 mmHg 90%
    12:00 +29°C° 1.6 mm 1 m/s 756 mmHg 89%
    13:00 +30°C° 1.6 mm 1 m/s 755 mmHg 88%
    14:00 +28°C° 1.6 mm 0 m/s 754 mmHg 88%
    15:00 +30°C° 1.1 mm 1 m/s 754 mmHg 89%
    16:00 +29°C° 1.1 mm 1 m/s 753 mmHg 91%
    17:00 +29°C° 1.1 mm 1 m/s 753 mmHg 92%
    18:00 +28°C° 0.8 mm 1 m/s 753 mmHg 94%
    19:00 +27°C° 0.8 mm 1 m/s 754 mmHg 95%
    20:00 +26°C° 0.8 mm 1 m/s 754 mmHg 96%
    21:00 +26°C° 1.7 mm 1 m/s 754 mmHg 96%
    22:00 +26°C° 1.7 mm 1 m/s 755 mmHg 96%
    23:00 +26°C° 1.7 mm 1 m/s 755 mmHg 96%

    Mâine, 25 Iunie, Marţi

    Timp Temperatura Precipitaţii Vânt Presiune Umiditate
    00:00 +26°C° 1.4 mm 1 m/s 755 mmHg 96%
    01:00 +26°C° 1.4 mm 1 m/s 755 mmHg 96%
    02:00 +25°C° 1.4 mm 1 m/s 754 mmHg 96%
    03:00 +25°C° 0.8 mm 1 m/s 754 mmHg 96%
    04:00 +25°C° 0.8 mm 1 m/s 754 mmHg 97%
    05:00 +25°C° 0.8 mm 1 m/s 754 mmHg 98%
    06:00 +25°C° 0.6 mm 1 m/s 754 mmHg 97%
    07:00 +26°C° 0.6 mm 1 m/s 755 mmHg 97%
    08:00 +26°C° 0.6 mm 2 m/s 755 mmHg 96%
    09:00 +27°C° 0.4 mm 2 m/s 755 mmHg 93%
    10:00 +28°C° 0.4 mm 3 m/s 755 mmHg 89%
    11:00 +29°C° 0.4 mm 3 m/s 756 mmHg 86%
    12:00 +29°C° 0.5 mm 3 m/s 755 mmHg 85%
    13:00 +30°C° 0.5 mm 3 m/s 754 mmHg 83%
    14:00 +30°C° 0.5 mm 2 m/s 754 mmHg 82%
    15:00 +30°C° 0.4 mm 2 m/s 753 mmHg 83%
    16:00 +30°C° 0.4 mm 2 m/s 753 mmHg 85%
    17:00 +30°C° 0.4 mm 1 m/s 752 mmHg 86%
    18:00 +29°C° 0.3 mm 1 m/s 753 mmHg 89%
    19:00 +27°C° 0.3 mm 1 m/s 753 mmHg 92%
    20:00 +26°C° 0.3 mm 1 m/s 753 mmHg 94%
    21:00 +26°C° 0 mm 1 m/s 754 mmHg 94%
    22:00 +26°C° 0 mm 1 m/s 754 mmHg 95%
    23:00 +24°C° 0 mm 0 m/s 755 mmHg 95%

    Poimâine, 26 Iunie, Miercuri

    Timp Temperatura Precipitaţii Vânt Presiune Umiditate
    00:00 +25°C° 0.1 mm 1 m/s 755 mmHg 95%
    01:00 +25°C° 0.1 mm 1 m/s 754 mmHg 96%
    02:00 +25°C° 0.1 mm 1 m/s 754 mmHg 96%
    03:00 +25°C° 0 mm 2 m/s 754 mmHg 96%
    04:00 +25°C° 0 mm 2 m/s 754 mmHg 96%
    05:00 +25°C° 0 mm 2 m/s 754 mmHg 96%
    06:00 +25°C° 0 mm 3 m/s 755 mmHg 95%
    07:00 +26°C° 0 mm 3 m/s 755 mmHg 95%
    08:00 +26°C° 0 mm 3 m/s 756 mmHg 94%
    09:00 +27°C° 0.1 mm 3 m/s 756 mmHg 88%
    10:00 +29°C° 0.1 mm 3 m/s 756 mmHg 82%
    11:00 +30°C° 0.1 mm 4 m/s 756 mmHg 76%
    12:00 +32°C° 0.1 mm 4 m/s 755 mmHg 73%
    13:00 +31°C° 0.1 mm 3 m/s 754 mmHg 71%
    14:00 +33°C° 0.1 mm 3 m/s 754 mmHg 68%
    15:00 +33°C° 0 mm 3 m/s 753 mmHg 71%
    16:00 +32°C° 0 mm 2 m/s 753 mmHg 75%
    17:00 +31°C° 0 mm 2 m/s 752 mmHg 78%
    18:00 +30°C° 0 mm 1 m/s 752 mmHg 80%
    19:00 +28°C° 0 mm 1 m/s 752 mmHg 81%
    20:00 +27°C° 0 mm 1 m/s 753 mmHg 83%
    21:00 +27°C° 0 mm 1 m/s 753 mmHg 85%
    22:00 +26°C° 0 mm 1 m/s 754 mmHg 86%
    23:00 +26°C° 0 mm 1 m/s 754 mmHg 88%

    27 Iunie, Joi

    Timp Temperatura Precipitaţii Vânt Presiune Umiditate
    00:00 +25°C° 0 mm 1 m/s 754 mmHg 88%
    01:00 +25°C° 0 mm 2 m/s 754 mmHg 89%
    02:00 +25°C° 0 mm 2 m/s 754 mmHg 89%
    03:00 +25°C° 0 mm 2 m/s 754 mmHg 90%
    04:00 +25°C° 0 mm 2 m/s 754 mmHg 90%
    05:00 +24°C° 0 mm 2 m/s 754 mmHg 91%
    06:00 +25°C° 0 mm 2 m/s 754 mmHg 89%
    07:00 +25°C° 0 mm 3 m/s 755 mmHg 88%
    08:00 +26°C° 0 mm 3 m/s 755 mmHg 86%
    09:00 +27°C° 0 mm 3 m/s 755 mmHg 84%
    10:00 +28°C° 0 mm 3 m/s 755 mmHg 81%
    11:00 +29°C° 0 mm 4 m/s 755 mmHg 78%
    12:00 +29°C° 0 mm 3 m/s 755 mmHg 75%
    13:00 +30°C° 0 mm 3 m/s 754 mmHg 71%
    14:00 +31°C° 0 mm 3 m/s 753 mmHg 68%
    15:00 +31°C° 0 mm 3 m/s 753 mmHg 71%
    16:00 +31°C° 0 mm 2 m/s 752 mmHg 74%
    17:00 +31°C° 0 mm 2 m/s 751 mmHg 77%
    18:00 +29°C° 0 mm 2 m/s 752 mmHg 80%
    19:00 +28°C° 0 mm 1 m/s 752 mmHg 82%
    20:00 +27°C° 0 mm 1 m/s 752 mmHg 85%
    21:00 +26°C° 0 mm 1 m/s 753 mmHg 86%
    22:00 +26°C° 0 mm 1 m/s 754 mmHg 87%
    23:00 +26°C° 0 mm 1 m/s 755 mmHg 87%

    28 Iunie, Vineri

    Timp Temperatura Precipitaţii Vânt Presiune Umiditate
    00:00 +25°C° 0.1 mm 1 m/s 754 mmHg 88%
    01:00 +25°C° 0.1 mm 1 m/s 754 mmHg 89%
    02:00 +25°C° 0.1 mm 1 m/s 754 mmHg 90%
    03:00 +25°C° 0.2 mm 2 m/s 754 mmHg 92%
    04:00 +24°C° 0.2 mm 2 m/s 754 mmHg 93%
    05:00 +24°C° 0.2 mm 2 m/s 754 mmHg 95%
    06:00 +25°C° 0 mm 2 m/s 754 mmHg 94%
    07:00 +25°C° 0 mm 3 m/s 755 mmHg 92%
    08:00 +26°C° 0 mm 3 m/s 755 mmHg 91%
    09:00 +27°C° 0.1 mm 3 m/s 756 mmHg 86%
    10:00 +29°C° 0.1 mm 4 m/s 756 mmHg 80%
    11:00 +30°C° 0.1 mm 4 m/s 756 mmHg 75%
    12:00 +32°C° 0.1 mm 4 m/s 755 mmHg 74%
    13:00 +32°C° 0.1 mm 4 m/s 754 mmHg 72%
    14:00 +33°C° 0.1 mm 3 m/s 753 mmHg 71%
    15:00 +31°C° 0.1 mm 3 m/s 753 mmHg 74%
    16:00 +31°C° 0.1 mm 2 m/s 752 mmHg 77%
    17:00 +31°C° 0.1 mm 2 m/s 751 mmHg 79%
    18:00 +30°C° 0 mm 2 m/s 752 mmHg 83%
    19:00 +29°C° 0 mm 1 m/s 753 mmHg 86%
    20:00 +28°C° 0 mm 1 m/s 753 mmHg 89%
    21:00 +27°C° 0.3 mm 2 m/s 754 mmHg 89%
    22:00 +27°C° 0.3 mm 2 m/s 754 mmHg 89%
    23:00 +27°C° 0.3 mm 3 m/s 755 mmHg 89%

    29 Iunie, Sâmbătă

    Timp Temperatura Precipitaţii Vânt Presiune Umiditate
    00:00 +26°C° 0.5 mm 3 m/s 755 mmHg 91%
    01:00 +26°C° 0.5 mm 2 m/s 754 mmHg 93%
    02:00 +25°C° 0.5 mm 2 m/s 754 mmHg 95%
    03:00 +25°C° 0 mm 2 m/s 754 mmHg 95%
    04:00 +25°C° 0 mm 2 m/s 754 mmHg 96%
    05:00 +25°C° 0 mm 1 m/s 753 mmHg 96%
    06:00 +26°C° 0 mm 2 m/s 754 mmHg 95%
    07:00 +26°C° 0 mm 2 m/s 754 mmHg 94%
    08:00 +27°C° 0 mm 2 m/s 755 mmHg 92%
    09:00 +28°C° 0.4 mm 3 m/s 755 mmHg 89%
    10:00 +29°C° 0.4 mm 3 m/s 755 mmHg 85%
    11:00 +30°C° 0.4 mm 3 m/s 755 mmHg 82%
    12:00 +31°C° 0.8 mm 3 m/s 754 mmHg 79%
    13:00 +31°C° 0.8 mm 3 m/s 754 mmHg 77%
    14:00 +33°C° 0.8 mm 3 m/s 753 mmHg 74%
    15:00 +31°C° 1.4 mm 3 m/s 752 mmHg 79%
    16:00 +31°C° 1.4 mm 2 m/s 752 mmHg 85%
    17:00 +30°C° 1.4 mm 1 m/s 751 mmHg 90%
    18:00 +29°C° 0.3 mm 1 m/s 752 mmHg 91%
    19:00 +28°C° 0.3 mm 1 m/s 752 mmHg 92%
    20:00 +27°C° 0.3 mm 1 m/s 753 mmHg 94%
    21:00 +27°C° 0.9 mm 1 m/s 753 mmHg 94%
    22:00 +26°C° 0.9 mm 2 m/s 754 mmHg 95%
    23:00 +26°C° 0.9 mm 2 m/s 754 mmHg 96%
    Arată mai mult